Effective Sunday, March 17, 2024, the National Weather Service National Data Buoy Center will discontinue its Dial-A-Buoy Interactive Voice Response system. For more information, see Service Change Notice 24-06 (PDF).

Station 46053 (LLNR 196) - EAST SANTA BARBARA - 12NM Southwest of Santa Barbara, CA Image indicating link to RSS feed of recent meteorological observations for station 46053


Conditions at 46053 as of
(9:10 pm PST on 02/29/2024)
0510 GMT on 03/01/2024:
     

Click on the graph icon in the table below to see a time series plot of the last five days of that observation.

5-day plot - Wind Direction Wind Direction (WDIR): W ( 270 deg true )
5-day plot - Wind Speed Wind Speed (WSPD): 3.9 kts
5-day plot - Wind Gust Wind Gust (GST): 5.8 kts
5-day plot - Wave Height Wave Height (WVHT): 1.6 ft
5-day plot - Average Wave Period Average Period (APD): 6.2 sec
5-day plot - Mean Wave Direction Mean Wave Direction (MWD): W ( 272 deg true )
5-day plot - Atmospheric Pressure Atmospheric Pressure (PRES):30.11 in
5-day plot - Air Temperature Air Temperature (ATMP): 57.0 °F
5-day plot - Water Temperature Water Temperature (WTMP): 59.0 °F
5-day plot - Dew Point Dew Point (DEWP): 50.2 °F
5-day plot - Wind Speed at 10 Meters Wind Speed at 10 meters (WSPD10M): 3.9 kts
5-day plot - Wind Speed at 20 Meters Wind Speed at 20 meters (WSPD20M): 3.9 kts
5-day plot -  Wind Speed, Wind Gust and Atmospheric Pressure Combined plot of Wind Speed, Gust, and Air Pressure
Supplemental Measurements
Highest 1-minute Wind Speed
Time (PST)5-day plot - 1-Minute Wind Speed WSPD 5-day plot - 1-Minute Wind Direction WDIR
9:01 pm 3.9 kts-
Previous observations
TIME
(PST)
5-day plot - Wind Direction
WDIR
 
5-day plot - Wind Speed
WSPD
kts
5-day plot - Wind Gust
GST
kts
5-day plot - Wave Height
WVHT
ft
5-day plot - Dominant Wave Period
DPD
sec
5-day plot - Average Wave Period
APD
sec
5-day plot - Mean Wave Direction
MWD
 
5-day plot - Atmospheric Pressure
PRES
in
5-day plot - Pressure Tendency
PTDY
in
5-day plot - Air Temperature
ATMP
°F
5-day plot - Water Temperature
WTMP
°F
5-day plot - Dew Point
DEWP
°F
5-day plot - Salinity
SAL
psu
5-day plot - Visibility
VIS
nmi
5-day plot - Tide (above MLLW)
TIDE
ft
2024-02-29 09:00 pmWNW 3.9 5.8----30.11+0.01 57.0 59.0 50.4---
2024-02-29 08:50 pm W 3.9 5.8 1.6 135.9WSW30.11- 57.2 59.0 50.4---
2024-02-29 08:40 pm W 1.9 3.9 1.6-5.9WSW30.11- 57.2 59.0 50.4---
2024-02-29 08:30 pm S 1.9 1.9----30.11- 57.2 59.0 50.4---
2024-02-29 08:20 pm- 0.0 1.9 1.6 115.4 W30.11- 57.2 59.0 50.2---
2024-02-29 08:10 pm S 3.9 5.8 1.6-5.4 W30.11- 57.0 59.0 50.0---
2024-02-29 08:00 pmSSW 3.9 5.8----30.11+0.01 57.0 59.0 50.4---
2024-02-29 07:50 pmSSW 3.9 5.8 2.0 115.6WNW30.11- 57.0 59.0 50.2---
2024-02-29 07:40 pmSSW 5.8 5.8 2.0-5.6WNW30.11- 57.0 59.0 50.2---
2024-02-29 07:30 pmSSW 3.9 5.8----30.11- 57.0 59.0 49.6---
2024-02-29 07:20 pmSSW 3.9 5.8 1.6 116.0WNW30.10- 57.2 59.0 49.6---
2024-02-29 07:10 pmSSW 3.9 5.8 1.6-6.0WNW30.11- 57.0 59.0 49.6---
2024-02-29 07:00 pmWNW 1.9 5.8----30.11+0.00 56.8 59.0 50.2---
2024-02-29 06:50 pm NW 1.9 3.9 1.6 115.7 W30.11- 56.7 59.0 49.8---
2024-02-29 06:40 pm NW 3.9 5.8----30.11- 56.7 59.0 49.8---
2024-02-29 06:30 pm NW 3.9 5.8----30.11- 56.8 59.2 50.2---
2024-02-29 06:20 pm NW 3.9 5.8 1.6 115.8WNW30.11- 56.7 59.2 49.8---
2024-02-29 06:10 pmNNW 1.9 3.9 1.6-5.8WNW30.11- 56.7 59.0 49.8---
2024-02-29 06:00 pmNNW 1.9 3.9----30.10+0.00 56.7 59.2 49.8---
2024-02-29 05:50 pm NW 1.9 1.9 1.6 115.5WSW30.10- 56.7 59.2 49.6---
2024-02-29 05:40 pm- 0.0 1.9----30.10- 56.7 59.2 49.5---
2024-02-29 05:30 pmNNW 1.9 1.9----30.10- 56.7 59.0 49.6---
2024-02-29 05:20 pmWNW 1.9 3.9 1.6 125.9 W30.10- 56.7 59.2 49.5---
2024-02-29 05:10 pmNNW 1.9 1.9 1.6-5.9 W30.10- 56.7 59.2 49.5---
2024-02-29 05:00 pmNNW 1.9 1.9----30.10-0.03 56.7 59.2 49.5---
2024-02-29 04:50 pmNNW 1.9 1.9 1.6 115.9 W30.10- 56.8 59.2 49.5---
2024-02-29 04:40 pm N 1.9 1.9----30.10- 56.8 59.4 49.3---
2024-02-29 04:30 pmNNW 1.9 1.9----30.10- 57.0 59.4 49.5---
2024-02-29 04:20 pm- 0.0 1.9 2.0 115.8 W30.10- 57.4 59.4 49.8---
2024-02-29 04:10 pm- 0.0 1.9 2.0-5.8 W30.10- 57.2 59.4 49.3---
2024-02-29 04:00 pm NW 1.9 1.9----30.11-0.03 57.0 59.4 49.5---
2024-02-29 03:50 pmNNW 1.9 3.9 2.0 135.9 W30.11- 57.0 59.4 49.6---
2024-02-29 03:00 pm NW 3.9 3.9 2.0-5.5 W30.11-0.05 57.0 59.2 49.3---
2024-02-29 02:50 pmWNW 3.9 5.8 2.0 116.3 W30.11- 57.0 59.0 49.5---
2024-02-29 02:40 pmWNW 3.9 5.8 2.0-6.3 W30.12- 57.0 59.0 49.5---
2024-02-29 02:30 pmWNW 5.8 7.8----30.12- 57.0 58.8 49.5---
2024-02-29 02:20 pmWNW 5.8 7.8 2.0 125.8WSW30.13- 57.0 58.8 49.5---
2024-02-29 02:10 pmWNW 5.8 5.8 2.0-5.8WSW30.12- 57.0 58.8 49.5---
2024-02-29 02:00 pm W 5.8 7.8----30.13-0.03 57.0 58.8 49.1---
2024-02-29 01:50 pm W 5.8 7.8 2.3 126.7 W30.13- 57.2- 49.3---
2024-02-29 01:40 pm W 5.8 7.8 2.3-6.7 W30.13- 57.0 58.6 49.1---
2024-02-29 01:30 pm W 5.8 7.8----30.14- 56.8 58.6 49.1---
2024-02-29 01:20 pm W 5.8 7.8 2.0 116.4WSW30.14- 56.8 58.5 49.3---
2024-02-29 01:10 pm W 3.9 5.8----30.14- 56.7 58.5 48.9---
2024-02-29 01:00 pmWSW 3.9 7.8----30.14-0.01 56.7 58.5 48.7---
2024-02-29 12:50 pmWSW 5.8 5.8 2.3 126.4WSW30.14- 56.7 58.5 48.9---
2024-02-29 12:40 pmWSW 5.8 5.8 2.3-6.4WSW30.14- 56.7 58.5 48.9---
2024-02-29 12:30 pmWSW 5.8 7.8----30.15- 56.7 58.5 48.9---
2024-02-29 12:20 pm W 5.8 7.8 2.0 136.0 W30.15- 56.7 58.5 48.9---
2024-02-29 12:10 pmWSW 5.8 9.7----30.15- 56.7 58.5 48.7---
2024-02-29 12:00 pm W 5.8 7.8----30.16+0.02 56.7 58.5 48.7---
2024-02-29 11:50 am W 5.8 7.8 2.0 125.7 W30.16- 56.7 58.5 48.7---
2024-02-29 11:40 amWSW 5.8 7.8 2.0-5.7 W30.16- 56.7 58.5 48.6---
2024-02-29 11:30 am W 7.8 9.7----30.16- 56.7 58.5 48.6---
2024-02-29 11:20 am W 7.8 7.8 2.3 115.7WSW30.16- 56.7 58.3 48.7---
2024-02-29 11:10 am W 7.8 9.7 2.3-5.7WSW30.16- 56.5 58.5 48.7---
2024-02-29 11:00 amWSW 7.8 9.7----30.16+0.04 56.5 58.5 48.7---
2024-02-29 10:50 amWSW 5.8 7.8 2.3 136.0 W30.16- 56.5 58.5 48.7---
2024-02-29 10:40 am W 7.8 7.8----30.16- 56.5 58.5 48.7---
2024-02-29 10:30 am W 7.8 9.7----30.16- 56.5 58.5 48.7---
2024-02-29 10:20 am W 5.8 9.7 2.3 116.2 W30.16- 56.7 58.5 48.7---
2024-02-29 10:10 am W 5.8 7.8----30.16- 56.7 58.3 48.9---
2024-02-29 10:00 amWSW 5.8 7.8----30.15+0.04 56.5 58.3 48.6---
2024-02-29 09:50 amWSW 5.8 7.8 2.3 125.8 W30.15- 56.7 58.3 48.7---
2024-02-29 09:40 amWSW 5.8 5.8----30.14- 56.7 58.3 48.6---
2024-02-29 09:30 am W 5.8 5.8----30.14- 56.7 58.3 48.7---
2024-02-29 09:20 am W 5.8 7.8 2.3 115.6 W30.14- 56.7 58.3 48.9---
2024-02-29 09:10 am W 5.8 7.8 2.3-5.6 W30.14- 56.7 58.3 48.9---
2024-02-29 09:00 am W 7.8 7.8----30.14+0.04 56.7 58.3 49.3---
2024-02-29 08:50 am W 5.8 7.8 2.3 115.7 W30.13- 56.5 58.3 48.9---
2024-02-29 08:40 am W 5.8 7.8 2.3-5.7 W30.13- 56.7 58.3 49.1---
2024-02-29 08:30 am W 7.8 9.7----30.13- 56.7 58.3 49.3---
2024-02-29 08:20 am W 7.8 9.7 2.3 115.5 W30.13- 56.7 58.3 49.3---
2024-02-29 08:10 amWSW 7.8 9.7----30.13- 56.5 58.3 49.1---
2024-02-29 08:00 am W 7.8 9.7----30.12+0.05 56.7 58.3 49.5---
2024-02-29 07:50 amWSW 7.8 9.7 2.3 115.5 W30.12- 56.7 58.3 49.3---
2024-02-29 07:40 amWSW 7.8 9.7----30.11- 56.7 58.3 49.1---
2024-02-29 07:30 am W 7.8 9.7----30.11- 56.5 58.3 49.3---
2024-02-29 07:20 am W 5.8 7.8 2.3 125.3 W30.11- 56.5 58.3 49.8---
2024-02-29 07:10 am W 5.8 7.8 2.3-5.3 W30.11- 56.5 58.3 50.2---
2024-02-29 07:00 am W 5.8 7.8----30.11+0.06 56.5 58.3 50.2---
2024-02-29 06:50 am W 5.8 7.8 2.3 124.9WNW30.10- 56.5 58.1 49.8---
2024-02-29 06:40 amWSW 5.8 7.8 2.3-4.9WNW30.10- 56.3 58.1 49.6---
2024-02-29 06:30 amWSW 7.8 7.8----30.10- 56.5 58.3 50.2---
2024-02-29 06:20 amWSW 7.8 7.8 2.3 134.8WSW30.10- 56.5 58.3 49.8---
2024-02-29 06:10 am W 5.8 7.8 2.3-4.8WSW30.09- 56.5 58.3 49.8---
2024-02-29 06:00 amWSW 5.8 7.8----30.09+0.06 56.5 58.3 49.8---
2024-02-29 05:50 amWSW 7.8 9.7 2.6 114.7 W30.09- 56.5 58.3 50.5---
2024-02-29 05:40 amWSW 7.8 11.7----30.09- 56.5 58.3 51.1---
2024-02-29 05:30 amWSW 7.8 9.7----30.08- 56.7 58.3 51.6---
2024-02-29 05:20 amWSW 7.8 9.7 2.6 134.4 W30.08- 56.5 58.3 51.1---
2024-02-29 05:10 amWSW 7.8 9.7 2.6-4.4 W30.08- 56.5 58.3 50.9---
2024-02-29 05:00 amWSW 9.7 11.7----30.07+0.04 56.5 58.3 51.3---
2024-02-29 04:50 amWSW 9.7 11.7 3.0 134.6 W30.07- 56.5 58.5 51.3---
2024-02-29 04:40 amWSW 9.7 11.7 3.0-4.6 W30.07- 56.5 58.5 51.6---
2024-02-29 04:30 amWSW 11.7 13.6----30.06- 56.5 58.5 52.0---
2024-02-29 04:20 amWSW 11.7 13.6 2.6 124.2WNW30.06- 56.7 58.5 52.7---
2024-02-29 04:10 amWSW 11.7 13.6 2.6-4.2WNW30.06- 56.7 58.5 52.7---
2024-02-29 04:00 amWSW 11.7 15.5----30.05+0.03 56.7 58.5 52.9---
2024-02-29 03:50 amWSW 11.7 15.5 2.6 134.5WNW30.05- 56.7 58.5 53.1---
2024-02-29 03:40 amWSW 11.7 15.5----30.05- 56.7 58.5 53.2---
2024-02-29 03:30 amWSW 13.6 15.5----30.04- 56.7 58.5 53.2---
2024-02-29 03:20 amWSW 13.6 15.5 3.0 134.7WNW30.03- 56.7 58.5 53.1---
2024-02-29 03:10 amWSW 11.7 15.5 3.0-4.7WNW30.03- 56.7 58.5 53.1---
2024-02-29 03:00 amWSW 11.7 13.6----30.03+0.00 56.7 58.6 53.1---
2024-02-29 02:50 amWSW 11.7 13.6 3.0 134.5WSW30.03- 56.5 58.5 52.9---
2024-02-29 02:40 amWSW 11.7 13.6----30.03- 56.7 58.5 53.4---
2024-02-29 02:30 am SW 11.7 13.6----30.03- 56.7 58.5 53.2---
2024-02-29 02:20 am SW 11.7 13.6 3.0 134.3WNW30.03- 56.7 58.5 53.4---
2024-02-29 02:10 amWSW 11.7 13.6 3.0-4.3WNW30.03- 56.7 58.5 53.4---
2024-02-29 02:00 amWSW 11.7 13.6----30.03+0.00 56.7 58.5 53.4---
2024-02-29 01:50 amWSW 9.7 13.6 3.0 124.3WNW30.02- 56.7 58.5 53.8---
2024-02-29 01:40 amWSW 11.7 13.6----30.03- 56.7 58.6 53.8---
2024-02-29 01:30 amWSW 11.7 13.6----30.03- 56.8 58.6 54.0---
2024-02-29 01:20 amWSW 11.7 15.5 3.0 134.3 W30.03- 56.8 58.6 54.1---
2024-02-29 01:10 amWSW 11.7 13.6----30.03- 56.8 58.6 54.1---
2024-02-29 01:00 am W 11.7 13.6----30.03+0.01 56.8 58.6 54.1---
2024-02-29 12:50 am W 11.7 13.6 3.0 134.5WSW30.03- 57.0 58.6 54.3---
2024-02-29 12:40 am W 11.7 13.6----30.03- 57.2 58.6 54.7---
2024-02-29 12:30 am W 11.7 13.6----30.03- 57.2 58.6 54.5---
2024-02-29 12:20 am W 11.7 13.6 3.0 134.2 W30.03- 57.2 58.6 54.5---
2024-02-29 12:10 am W 11.7 13.6 3.0-4.2 W30.03- 57.4 58.6 54.7---
2024-02-29 12:00 am W 11.7 15.5----30.03+0.02 57.4 58.6 55.0---
2024-02-28 11:50 pm W 11.7 13.6 3.0 124.8WSW30.03- 57.4 58.6 55.0---
2024-02-28 11:40 pm W 11.7 13.6----30.03- 57.6 58.6 55.0---
2024-02-28 11:30 pm W 11.7 13.6----30.03- 57.6 58.6 54.9---
2024-02-28 11:20 pm W 11.7 13.6 2.6 134.3 W30.02- 57.7 58.6 55.4---
2024-02-28 11:10 pm W 11.7 13.6 2.6-4.3 W30.03- 57.7 58.8 55.4---
2024-02-28 11:00 pm W 11.7 13.6----30.03+0.03 57.7 58.8 55.4---
2024-02-28 10:50 pm W 11.7 13.6 2.6 144.4WSW30.02- 57.7 58.8 55.4---
2024-02-28 10:40 pm W 9.7 11.7 2.6-4.4WSW30.02- 57.7 58.8 55.4---
2024-02-28 10:30 pm W 9.7 13.6----30.02- 57.9 58.8 55.4---
2024-02-28 10:20 pm W 9.7 13.6 3.0 124.6 W30.02- 57.9 58.8 55.4---
2024-02-28 10:10 pmWSW 9.7 13.6 3.0-4.6 W30.02- 58.1 58.8 55.8---
2024-02-28 10:00 pmWSW 9.7 13.6----30.01+0.02 58.1 58.8 55.9---
2024-02-28 09:50 pmWSW 9.7 11.7 3.0 114.6 W30.01- 58.1 58.8 56.1---
2024-02-28 09:40 pmWSW 9.7 11.7----30.01- 58.1 58.8 55.9---
2024-02-28 09:30 pmWSW 9.7 11.7----30.01- 58.1 58.8 55.9---
2024-02-28 09:20 pmWSW 9.7 13.6 3.0 124.6 W30.01- 57.9 58.8 55.8---
2024-02-28 09:10 pmWSW 9.7 11.7----30.01- 58.1 58.8 56.1---
2024-02-28 09:00 pmWSW 9.7 11.7----30.00+0.01 58.1 58.8 55.9---
2024-02-28 08:50 pmWSW 9.7 11.7 3.0 94.8 W30.01- 58.1 58.8 55.9---

Detailed Wave Summary
for 46053 as of
(9:10 pm PST on 02/29/2024)
0510 GMT on 03/01/2024:

These wave data are displayed in rounded times.

     

Click on the graph icon in the table below to see a time series plot of the last five days of that observation.

5-day plot - Significant Wave Height Significant Wave Height (WVHT): 1.6 ft
5-day plot - Swell Height Swell Height (SwH): 1.3 ft
5-day plot - Swell Period Swell Period (SwP): 12.1 sec
5-day plot - Swell Direction Swell Direction (SwD): W
5-day plot - Wind Wave Height Wind Wave Height (WWH): 0.3 ft
5-day plot - Wind Wave Period Wind Wave Period (WWP): 3.6 sec
5-day plot - Wind Wave Direction Wind Wave Direction (WWD):WSW
5-day plot - Average Wave Period Average Wave Period (APD): 6.2 sec
Previous observations
TIME
(PST)
5-day plot - Wave Height
WVHT
ft
5-day plot - Swell Height
SwH
ft
5-day plot - Swell Period
SwP
sec
5-day plot - Swell Direction
SwD
 
5-day plot - Wind Wave Height
WWH
ft
5-day plot - Wind Wave Period
WWP
sec
5-day plot - Wind Wave Direction
WWD
 
5-day plot - Wave Steepness
STEEPNESS
 
5-day plot - Average Wave Period
APD
sec
2024-02-29 08:40 pm 1.6 1.6 12.9WSW 0.7 2.5 SW N/A 5.9
2024-02-29 08:10 pm 1.6 1.6 11.4 W 0.7 2.4 SW N/A 5.4
2024-02-29 07:40 pm 2.0 1.6 11.4WNW 0.7 2.4 SW N/A 5.6
2024-02-29 07:10 pm 1.6 1.6 11.4WNW 0.7 2.5 WSW N/A 6.0
2024-02-29 06:40 pm 1.6 1.6 11.4 W 0.7 2.7 SW N/A 5.7
2024-02-29 06:10 pm 1.6 1.6 11.4WNW 0.7 2.9 WSW N/A 5.8
2024-02-29 05:40 pm 1.6 1.6 11.4WSW 0.7 2.9 WSW N/A 5.5
2024-02-29 05:10 pm 1.6 1.6 12.1 W 0.7 3.7 WSW N/A 5.9
2024-02-29 04:40 pm 1.6 1.6 11.4 W 0.7 4.0 WSW N/A 5.9
2024-02-29 04:10 pm 2.0 1.6 11.4 W 0.7 3.0 WSW N/A 5.8
2024-02-29 03:40 pm 2.0 1.6 12.9 W 0.7 3.8 WSW N/A 5.9
2024-02-29 03:10 pm 2.0 2.0 11.4 W 0.7 2.4 SW N/A 5.5
2024-02-29 02:40 pm 2.0 2.0 11.4 W 0.7 3.7 W N/A 6.3
2024-02-29 02:10 pm 2.0 1.6 12.1WSW 0.7 3.7 W N/A 5.8
2024-02-29 01:40 pm 2.3 2.0 12.1 W 0.7 4.0 W N/A 6.7
2024-02-29 01:10 pm 2.0 2.0 11.4WSW 0.7 3.6 W N/A 6.4
2024-02-29 12:40 pm 2.3 2.3 12.1WSW 0.7 4.0 W N/A 6.4
2024-02-29 12:10 pm 2.0 2.0 12.9 W 0.7 3.6 W N/A 6.0
2024-02-29 11:40 am 2.0 2.0 12.1 W 0.7 4.0 W N/A 5.7
2024-02-29 11:10 am 2.3 2.0 11.4WSW 0.7 3.1 WSW N/A 5.7
2024-02-29 10:40 am 2.3 2.0 12.9 W 0.7 3.6 WSW N/A 6.0
2024-02-29 10:10 am 2.3 2.3 11.4 W 0.7 3.7 W N/A 6.2
2024-02-29 09:40 am 2.3 2.0 12.1 W 1.0 3.7 W N/A 5.8
2024-02-29 09:10 am 2.3 2.0 11.4 W 1.0 4.0 W N/A 5.6
2024-02-29 08:40 am 2.3 2.3 11.4 W 1.0 4.0 W N/A 5.7
2024-02-29 08:10 am 2.3 2.0 11.4 W 1.0 3.8 W N/A 5.5
2024-02-29 07:40 am 2.3 2.3 11.4 W 1.0 3.6 W N/A 5.5
2024-02-29 07:10 am 2.3 2.0 12.1 W 1.0 3.7 W N/A 5.3
2024-02-29 06:40 am 2.3 2.0 12.1WNW 1.0 2.9 W N/A 4.9
2024-02-29 06:10 am 2.3 2.0 12.9WSW 1.3 3.3 W N/A 4.8
2024-02-29 05:40 am 2.6 2.0 11.4 W 1.3 3.0 W N/A 4.7
2024-02-29 05:10 am 2.6 2.0 12.9 W 1.6 3.8 W N/A 4.4
2024-02-29 04:40 am 3.0 2.3 12.9 W 2.0 3.8 W SWELL 4.6
2024-02-29 04:10 am 2.6 2.0 12.1WNW 2.0 2.9 W SWELL 4.2
2024-02-29 03:40 am 2.6 2.0 12.9WNW 1.6 3.2 W SWELL 4.5
2024-02-29 03:10 am 3.0 2.3 12.9WNW 2.0 4.2 W SWELL 4.7
2024-02-29 02:40 am 3.0 2.0 12.9WSW 2.0 4.3 W SWELL 4.5
2024-02-29 02:10 am 3.0 2.0 12.9WNW 2.0 3.8 W SWELL 4.3
2024-02-29 01:40 am 3.0 2.0 12.1WNW 2.0 4.2 W SWELL 4.3
2024-02-29 01:10 am 3.0 2.0 12.9 W 2.0 3.7 W SWELL 4.3
2024-02-29 12:40 am 3.0 2.0 12.9WSW 2.0 3.8 W SWELL 4.5
2024-02-29 12:10 am 3.0 2.0 12.9 W 2.3 3.4 W AVERAGE 4.2
2024-02-28 11:40 pm 3.0 2.3 12.1WSW 2.0 3.3 WSW SWELL 4.8
2024-02-28 11:10 pm 2.6 2.0 12.9 W 2.0 3.6 W SWELL 4.3
2024-02-28 10:40 pm 2.6 2.0 13.8WSW 2.0 3.8 W SWELL 4.4
2024-02-28 10:10 pm 3.0 2.3 12.1 W 2.0 3.4 W SWELL 4.6
2024-02-28 09:40 pm 3.0 2.3 10.8 W 1.6 4.0 W SWELL 4.6
2024-02-28 09:10 pm 3.0 2.3 12.1 W 2.0 3.7 W SWELL 4.6

Plot of wave energy versus frequency (and period)